Shreveport, LA

5:21 PM CST on February 08, 2016 (GMT -0600)
Barksdale Air Force Base

Weather History for KBAD - November, 2012

Change the Weather History Date:

Monday, November 5, 2012

  Actual Average Record
Temperature  
Mean Temperature 61 °F -  
Max Temperature 71 °F 66 °F 84 °F (2003)
Min Temperature 51 °F 47 °F 36 °F (2010)
Degree Days  
Heating Degree Days 4    
Growing Degree Days 11 (Base 50)    
Moisture  
Dew Point 51 °F    
Average Humidity 75    
Maximum Humidity 95    
Minimum Humidity 47    
Precipitation  
Precipitation 0.00 in - - ()
Sea Level Pressure  
Sea Level Pressure 30.03 in    
Wind  
Wind Speed 2 mph (NW)    
Max Wind Speed 10 mph    
Max Gust Speed -    
Visibility 10 miles    
Events      
Averages and records for this station are not official NWS values.
T = Trace of Precipitation, MM = Missing Value Source: NWS Daily Summary

Daily Weather History Graph

Daily Weather History Graph

Search for Another Location

Airport or City:

Trip Planner

Search our weather history database for the weather conditions in past years. The results will help you decide how hot, cold, wet, or windy it might be!

Date:

Astronomy

Nov. 05, 2012 Rise Set
Actual Time 6:35 AM CST 5:20 PM CST
Civil Twilight 6:10 AM CST 5:45 PM CST
Nautical Twilight 5:40 AM CST 6:15 PM CST
Astronomical Twilight 5:12 AM CST 6:43 PM CST
Moon 10:57 PM CST (11/5) 11:55 AM CST (11/5)
Length of Visible Light 11h 35m
Length of Day
10h 44m
Waning Gibbous, 62% of the Moon is Illuminated
Nov 5
Waning Gibbous
Nov 6
Last Quarter
Nov 13
New
Nov 20
First Quarter
Nov 28
Full

Hourly Weather History & Observations

Time (CST) Temp. Dew Point Humidity Pressure Visibility Wind Dir Wind Speed Gust Speed Precip Events Conditions
12:55 AM 57.2 °F 52.0 °F 83% 30.09 in 10.0 mi Calm Calm - N/A   Overcast
1:55 AM 57.0 °F 51.3 °F 81% 30.08 in 10.0 mi Calm Calm - N/A   Mostly Cloudy
2:12 AM 57.2 °F 51.8 °F 82% 30.08 in 10.0 mi NNE 3.5 mph - N/A   Mostly Cloudy
2:55 AM 55.8 °F 52.0 °F 87% 30.07 in 10.0 mi Calm Calm - N/A   Overcast
3:55 AM 55.6 °F 51.8 °F 87% 30.06 in 10.0 mi Calm Calm - N/A   Overcast
4:55 AM 56.1 °F 51.8 °F 85% 30.08 in 10.0 mi Calm Calm - N/A   Overcast
5:55 AM 55.9 °F 51.1 °F 84% 30.06 in 10.0 mi Calm Calm - N/A   Overcast
6:34 AM 55.4 °F 51.8 °F 88% 30.05 in 10.0 mi SSE 4.6 mph - N/A   Overcast
6:55 AM 56.1 °F 50.9 °F 83% 30.06 in 10.0 mi Calm Calm - N/A   Overcast
7:55 AM 57.4 °F 49.6 °F 75% 30.06 in 10.0 mi SE 3.5 mph - N/A   Overcast
8:55 AM 58.8 °F 51.1 °F 75% 30.06 in 10.0 mi South 4.6 mph - N/A   Mostly Cloudy
9:15 AM 59.0 °F 51.8 °F 77% 30.06 in 10.0 mi South 4.6 mph - N/A   Mostly Cloudy
9:55 AM 61.5 °F 52.9 °F 73% 30.05 in 10.0 mi Calm Calm - N/A   Scattered Clouds
10:55 AM 64.4 °F 54.7 °F 71% 30.04 in 10.0 mi WNW 4.6 mph - N/A   Partly Cloudy
11:55 AM 67.5 °F 56.1 °F 67% 30.01 in 10.0 mi WNW 3.5 mph - N/A   Overcast
12:55 PM 68.9 °F 56.3 °F 64% 29.97 in 10.0 mi WNW 4.6 mph - N/A   Overcast
1:55 PM 70.5 °F 52.0 °F 52% 29.96 in 10.0 mi NW 9.2 mph - N/A   Overcast
2:55 PM 71.4 °F 50.2 °F 47% 29.96 in 10.0 mi NW 10.4 mph - N/A   Overcast
3:55 PM 69.1 °F 50.7 °F 52% 29.96 in 10.0 mi NW 9.2 mph - N/A   Overcast
4:55 PM 65.7 °F 48.7 °F 54% 29.97 in 10.0 mi NNW 10.4 mph - N/A   Scattered Clouds
5:55 PM 61.3 °F 49.8 °F 66% 29.99 in 10.0 mi NW 4.6 mph - N/A   Clear
6:55 PM 57.0 °F 50.2 °F 78% 29.99 in 10.0 mi Calm Calm - N/A   Clear
7:55 PM 54.3 °F 50.4 °F 86% 30.00 in 10.0 mi Calm Calm - N/A   Clear
8:55 PM 52.3 °F 50.0 °F 92% 30.01 in 10.0 mi Calm Calm - N/A   Clear
9:55 PM 51.6 °F 50.2 °F 95% 30.01 in 10.0 mi Calm Calm - N/A   Clear
10:55 PM 55.6 °F 47.1 °F 73% 30.02 in 10.0 mi North 10.4 mph - N/A   Clear
11:55 PM 51.6 °F 45.5 °F 80% 30.04 in 10.0 mi North 8.1 mph - N/A   Clear